Time,TemperatureF,DewpointF,PressureIn,WindDirection,WindDirectionDegrees,WindSpeedMPH,WindSpeedGustMPH,Humidity,HourlyPrecipIn,Conditions,Clouds,dailyrainin,SolarRadiationWatts/m^2,SoftwareType,DateUTC
2013-10-09 00:00:00,54.8,48.7,28.75,SSE,150,0.0,4.0,80,0.00,RA,,0.00,0.0,WeatherDisplay:10.37,2013-10-09 05:00:00,
2013-10-09 00:10:00,54.6,48.6,28.75,SSE,150,0.0,4.0,80,0.00,FEW,,0.00,0.0,WeatherDisplay:10.37,2013-10-09 05:10:00,
2013-10-09 00:20:00,54.5,48.5,28.75,SE,140,0.0,5.0,80,0.00,FEW,,0.00,0.0,WeatherDisplay:10.37,2013-10-09 05:20:00,
2013-10-09 00:30:00,54.4,48.4,28.75,SE,138,0.0,3.0,80,0.00,FEW,,0.00,0.0,WeatherDisplay:10.37,2013-10-09 05:30:00,
2013-10-09 00:40:00,54.1,48.1,28.75,SE,138,0.0,1.0,80,0.00,FEW,,0.00,0.0,WeatherDisplay:10.37,2013-10-09 05:40:00,
2013-10-09 00:50:00,53.8,48.1,28.75,SE,138,0.0,0.0,81,0.00,FEW,,0.00,0.0,WeatherDisplay:10.37,2013-10-09 05:50:00,
2013-10-09 01:00:00,53.5,47.8,28.75,SE,138,0.0,0.0,81,0.00,FEW,,0.00,0.0,WeatherDisplay:10.37,2013-10-09 06:00:00,
2013-10-09 01:10:00,53.2,47.8,28.75,SE,138,0.0,0.0,82,0.00,FEW,,0.00,0.0,WeatherDisplay:10.37,2013-10-09 06:10:00,
2013-10-09 01:20:00,52.9,47.6,28.75,SE,138,0.0,0.0,82,0.00,FEW,,0.00,0.0,WeatherDisplay:10.37,2013-10-09 06:20:00,
2013-10-09 01:30:00,52.7,47.7,28.75,SE,138,0.0,0.0,83,0.00,FEW,,0.00,0.0,WeatherDisplay:10.37,2013-10-09 06:30:00,
2013-10-09 01:40:00,52.5,47.5,28.75,SE,138,0.0,0.0,83,0.00,FEW,,0.00,0.0,WeatherDisplay:10.37,2013-10-09 06:40:00,
2013-10-09 01:50:00,52.1,47.1,28.75,SE,138,0.0,0.0,83,0.00,FEW,,0.00,0.0,WeatherDisplay:10.37,2013-10-09 06:50:00,
2013-10-09 02:00:00,51.5,46.8,28.75,SE,138,0.0,0.0,84,0.00,FEW,,0.00,0.0,WeatherDisplay:10.37,2013-10-09 07:00:00,
2013-10-09 02:10:00,50.9,46.5,28.75,SE,138,0.0,0.0,85,0.00,FEW,,0.00,0.0,WeatherDisplay:10.37,2013-10-09 07:10:00,
2013-10-09 02:20:00,50.3,46.6,28.75,SE,138,0.0,0.0,87,0.00,FEW,,0.00,0.0,WeatherDisplay:10.37,2013-10-09 07:20:00,
2013-10-09 02:30:00,50.0,46.6,28.75,SE,138,0.0,0.0,88,0.00,FEW,,0.00,0.0,WeatherDisplay:10.37,2013-10-09 07:30:00,
2013-10-09 02:40:00,49.6,46.2,28.75,SE,138,0.0,0.0,88,0.00,FEW,,0.00,0.0,WeatherDisplay:10.37,2013-10-09 07:40:00,
2013-10-09 02:50:00,49.5,46.4,28.75,SE,138,0.0,0.0,89,0.00,FEW,,0.00,0.0,WeatherDisplay:10.37,2013-10-09 07:50:00,
2013-10-09 03:00:00,49.1,45.7,28.75,SE,138,0.0,0.0,88,0.00,FEW,,0.00,0.0,WeatherDisplay:10.37,2013-10-09 08:00:00,
2013-10-09 03:10:00,48.5,45.4,28.75,SE,138,0.0,0.0,89,0.00,FEW,,0.00,0.0,WeatherDisplay:10.37,2013-10-09 08:10:00,
2013-10-09 03:20:00,47.8,44.5,28.74,SE,138,0.0,0.0,88,0.00,FEW,,0.00,0.0,WeatherDisplay:10.37,2013-10-09 08:20:00,
2013-10-09 03:30:00,47.2,44.4,28.74,SE,138,0.0,0.0,90,0.00,FEW,,0.00,0.0,WeatherDisplay:10.37,2013-10-09 08:30:00,
2013-10-09 03:40:00,47.0,44.8,28.74,SE,138,0.0,0.0,92,0.00,FEW,,0.00,0.0,WeatherDisplay:10.37,2013-10-09 08:40:00,
2013-10-09 03:50:00,47.5,45.3,28.74,SE,138,0.0,0.0,92,0.00,FEW,,0.00,0.0,WeatherDisplay:10.37,2013-10-09 08:50:00,
2013-10-09 04:00:00,47.8,45.6,28.75,SE,138,0.0,0.0,92,0.00,FEW,,0.00,0.0,WeatherDisplay:10.37,2013-10-09 09:00:00,
2013-10-09 04:10:00,47.3,44.8,28.75,SE,138,0.0,0.0,91,0.00,FEW,,0.00,0.0,WeatherDisplay:10.37,2013-10-09 09:10:00,
2013-10-09 04:20:00,46.7,44.2,28.75,SE,138,0.0,0.0,91,0.00,FEW,,0.01,0.0,WeatherDisplay:10.37,2013-10-09 09:20:00,
2013-10-09 04:30:00,46.1,44.0,28.75,SE,138,0.0,0.0,92,0.01,RA,,0.01,0.0,WeatherDisplay:10.37,2013-10-09 09:30:00,
2013-10-09 04:40:00,45.8,43.6,28.75,SE,138,0.0,0.0,92,0.01,FEW,,0.01,0.0,WeatherDisplay:10.37,2013-10-09 09:40:00,
2013-10-09 04:50:00,45.5,43.6,28.75,SE,138,0.0,0.0,93,0.01,FEW,,0.01,0.0,WeatherDisplay:10.37,2013-10-09 09:50:00,
2013-10-09 05:00:00,45.4,43.5,28.75,SE,138,0.0,0.0,93,0.01,FEW,,0.01,0.0,WeatherDisplay:10.37,2013-10-09 10:00:00,
2013-10-09 05:10:00,45.3,43.7,28.76,SE,138,0.0,0.0,94,0.01,FEW,,0.01,0.0,WeatherDisplay:10.37,2013-10-09 10:10:00,
2013-10-09 05:20:00,45.6,44.0,28.75,SE,138,0.0,0.0,94,0.01,FEW,,0.01,0.0,WeatherDisplay:10.37,2013-10-09 10:20:00,
2013-10-09 05:30:00,46.0,44.4,28.76,SE,138,0.0,0.0,94,0.00,FEW,,0.01,0.0,WeatherDisplay:10.37,2013-10-09 10:30:00,
2013-10-09 05:40:00,46.1,44.5,28.76,SE,138,0.0,0.0,94,0.00,FEW,,0.01,0.0,WeatherDisplay:10.37,2013-10-09 10:40:00,
2013-10-09 05:50:00,45.9,44.0,28.76,SE,138,0.0,0.0,93,0.00,FEW,,0.01,0.0,WeatherDisplay:10.37,2013-10-09 10:50:00,
2013-10-09 06:00:00,45.1,42.9,28.75,SE,138,0.0,0.0,92,0.00,FEW,,0.01,0.0,WeatherDisplay:10.37,2013-10-09 11:00:00,
2013-10-09 06:10:00,44.5,42.3,28.75,SE,138,0.0,0.0,92,0.00,FEW,,0.01,0.0,WeatherDisplay:10.37,2013-10-09 11:10:00,
2013-10-09 06:20:00,44.1,41.9,28.76,SE,138,0.0,0.0,92,0.00,FEW,,0.01,0.0,WeatherDisplay:10.37,2013-10-09 11:20:00,
2013-10-09 06:30:00,43.9,42.3,28.76,SE,138,0.0,0.0,94,0.00,FEW,,0.01,0.0,WeatherDisplay:10.37,2013-10-09 11:30:00,
2013-10-09 06:40:00,43.9,42.3,28.75,SE,138,0.0,0.0,94,0.00,FEW,,0.01,0.0,WeatherDisplay:10.37,2013-10-09 11:40:00,
2013-10-09 06:50:00,43.8,42.2,28.76,SE,138,0.0,0.0,94,0.00,FEW,,0.01,0.0,WeatherDisplay:10.37,2013-10-09 11:50:00,
2013-10-09 07:00:00,43.8,42.5,28.76,SE,138,0.0,0.0,95,0.00,FEW,,0.01,0.0,WeatherDisplay:10.37,2013-10-09 12:00:00,
2013-10-09 07:10:00,44.0,42.7,28.76,SE,138,0.0,0.0,95,0.00,FEW,,0.01,0.0,WeatherDisplay:10.37,2013-10-09 12:10:00,
2013-10-09 07:30:00,43.5,42.1,28.76,SE,138,0.0,0.0,95,0.00,FEW,,0.01,0.0,WeatherDisplay:10.37,2013-10-09 12:30:00,
2013-10-09 07:40:00,43.3,42.0,28.77,SE,138,0.0,0.0,95,0.00,FEW,,0.01,0.0,WeatherDisplay:10.37,2013-10-09 12:40:00,
2013-10-09 07:50:00,44.2,43.2,28.77,SE,138,0.0,0.0,96,0.00,FEW,,0.01,0.0,WeatherDisplay:10.37,2013-10-09 12:50:00,
2013-10-09 08:00:00,45.9,45.1,28.77,SE,138,0.0,0.0,97,0.00,FEW,,0.01,0.0,WeatherDisplay:10.37,2013-10-09 13:00:00,
2013-10-09 08:10:00,47.6,46.8,28.78,SE,135,0.0,0.0,97,0.00,FEW,,0.01,0.0,WeatherDisplay:10.37,2013-10-09 13:10:00,
2013-10-09 08:20:00,49.0,47.9,28.78,ESE,122,0.0,0.0,96,0.00,FEW,,0.01,0.0,WeatherDisplay:10.37,2013-10-09 13:20:00,
2013-10-09 08:30:00,51.2,49.0,28.78,ESE,121,0.0,1.0,92,0.00,FEW,,0.01,0.0,WeatherDisplay:10.37,2013-10-09 13:30:00,
2013-10-09 08:40:00,53.0,48.6,28.78,ESE,121,0.0,3.0,85,0.00,FEW,,0.01,0.0,WeatherDisplay:10.37,2013-10-09 13:40:00,
2013-10-09 08:50:00,54.0,48.6,28.78,ESE,121,0.0,4.0,82,0.00,FEW,,0.01,0.0,WeatherDisplay:10.37,2013-10-09 13:50:00,
2013-10-09 09:00:00,55.1,49.0,28.79,ESE,123,1.0,4.0,80,0.00,FEW,,0.01,0.0,WeatherDisplay:10.37,2013-10-09 14:00:00,
2013-10-09 09:10:00,55.6,49.2,28.79,SSE,147,2.0,7.0,79,0.00,FEW,,0.01,0.0,WeatherDisplay:10.37,2013-10-09 14:10:00,
2013-10-09 09:20:00,56.0,49.2,28.79,SSE,148,1.0,7.0,78,0.00,FEW,,0.01,0.0,WeatherDisplay:10.37,2013-10-09 14:20:00,
2013-10-09 09:30:00,57.1,50.3,28.79,ESE,122,1.0,5.0,78,0.00,FEW,,0.01,0.0,WeatherDisplay:10.37,2013-10-09 14:30:00,
2013-10-09 09:40:00,58.6,50.6,28.79,ESE,106,2.0,6.0,75,0.00,FEW,,0.01,0.0,WeatherDisplay:10.37,2013-10-09 14:40:00,
2013-10-09 09:50:00,59.0,50.7,28.79,SSE,155,0.0,6.0,74,0.00,FEW,,0.01,0.0,WeatherDisplay:10.37,2013-10-09 14:50:00,
2013-10-09 10:00:00,60.1,52.1,28.80,SSE,152,2.0,6.0,75,0.00,FEW,,0.01,0.0,WeatherDisplay:10.37,2013-10-09 15:00:00,
2013-10-09 10:10:00,60.9,51.8,28.80,SSE,159,2.0,9.0,72,0.00,FEW,,0.01,0.0,WeatherDisplay:10.37,2013-10-09 15:10:00,
2013-10-09 10:20:00,61.6,52.1,28.80,SSE,162,3.0,10.0,71,0.00,FEW,,0.01,0.0,WeatherDisplay:10.37,2013-10-09 15:20:00,
2013-10-09 10:30:00,62.3,52.0,28.80,SSE,148,3.0,9.0,69,0.00,FEW,,0.01,0.0,WeatherDisplay:10.37,2013-10-09 15:30:00,
2013-10-09 10:40:00,63.0,52.3,28.80,SSE,155,2.0,8.0,68,0.00,FEW,,0.01,0.0,WeatherDisplay:10.37,2013-10-09 15:40:00,
2013-10-09 10:50:00,63.7,52.9,28.80,SSE,165,1.0,6.0,68,0.00,FEW,,0.01,0.0,WeatherDisplay:10.37,2013-10-09 15:50:00,
2013-10-09 11:00:00,64.2,52.2,28.81,SSE,154,5.0,8.0,65,0.00,FEW,,0.01,0.0,WeatherDisplay:10.37,2013-10-09 16:00:00,
2013-10-09 11:10:00,64.6,51.7,28.81,SSE,149,5.0,9.0,63,0.00,FEW,,0.01,0.0,WeatherDisplay:10.37,2013-10-09 16:10:00,
2013-10-09 11:20:00,65.0,52.5,28.81,SSE,151,1.0,5.0,64,0.00,FEW,,0.01,0.0,WeatherDisplay:10.37,2013-10-09 16:20:00,
2013-10-09 11:30:00,65.1,52.2,28.80,SSE,161,0.0,7.0,63,0.00,FEW,,0.01,0.0,WeatherDisplay:10.37,2013-10-09 16:30:00,
2013-10-09 11:40:00,65.2,51.4,28.80,SSE,154,5.0,8.0,61,0.00,FEW,,0.01,0.0,WeatherDisplay:10.37,2013-10-09 16:40:00,
2013-10-09 11:50:00,65.5,52.1,28.80,SE,146,0.0,7.0,62,0.00,FEW,,0.01,0.0,WeatherDisplay:10.37,2013-10-09 16:50:00,
2013-10-09 12:00:00,66.1,51.8,28.80,SSE,158,2.0,6.0,60,0.00,FEW,,0.01,0.0,WeatherDisplay:10.37,2013-10-09 17:00:00,
2013-10-09 12:10:00,66.7,54.9,28.79,SW,233,0.0,9.0,66,0.00,FEW,,0.01,0.0,WeatherDisplay:10.37,2013-10-09 17:10:00,
2013-10-09 12:20:00,67.0,52.7,28.79,SSW,201,1.0,6.0,60,0.00,FEW,,0.01,0.0,WeatherDisplay:10.37,2013-10-09 17:20:00,
2013-10-09 12:30:00,67.4,53.0,28.79,SSW,211,0.0,4.0,60,0.00,FEW,,0.01,0.0,WeatherDisplay:10.37,2013-10-09 17:30:00,
2013-10-09 12:40:00,67.7,52.9,28.78,SSW,198,0.0,5.0,59,0.00,FEW,,0.01,0.0,WeatherDisplay:10.37,2013-10-09 17:40:00,
2013-10-09 12:50:00,68.4,52.6,28.78,SSE,152,3.0,8.0,57,0.00,FEW,,0.01,0.0,WeatherDisplay:10.37,2013-10-09 17:50:00,
2013-10-09 13:00:00,68.5,52.2,28.78,SSE,163,2.0,7.0,56,0.00,FEW,,0.01,0.0,WeatherDisplay:10.37,2013-10-09 18:00:00,
2013-10-09 13:10:00,68.5,53.1,28.77,SSE,163,0.0,9.0,58,0.00,FEW,,0.01,0.0,WeatherDisplay:10.37,2013-10-09 18:10:00,
2013-10-09 13:20:00,69.1,53.7,28.76,SSE,161,1.0,7.0,58,0.00,FEW,,0.01,0.0,WeatherDisplay:10.37,2013-10-09 18:20:00,
2013-10-09 13:30:00,69.1,52.7,28.76,SSE,166,2.0,8.0,56,0.00,FEW,,0.01,0.0,WeatherDisplay:10.37,2013-10-09 18:30:00,
2013-10-09 13:40:00,69.7,53.3,28.76,SSE,147,0.0,8.0,56,0.00,FEW,,0.01,0.0,WeatherDisplay:10.37,2013-10-09 18:40:00,
2013-10-09 13:50:00,69.9,51.5,28.75,SE,139,3.0,12.0,52,0.00,FEW,,0.01,0.0,WeatherDisplay:10.37,2013-10-09 18:50:00,
2013-10-09 14:00:00,69.8,52.9,28.75,SE,144,2.0,6.0,55,0.00,FEW,,0.01,0.0,WeatherDisplay:10.37,2013-10-09 19:00:00,
2013-10-09 14:10:00,70.3,52.8,28.74,SSE,147,0.0,7.0,54,0.00,FEW,,0.01,0.0,WeatherDisplay:10.37,2013-10-09 19:10:00,
2013-10-09 14:20:00,71.0,53.0,28.74,SSE,159,5.0,10.0,53,0.00,FEW,,0.01,0.0,WeatherDisplay:10.37,2013-10-09 19:20:00,
2013-10-09 14:30:00,70.8,53.3,28.74,SSE,156,5.0,10.0,54,0.00,FEW,,0.01,0.0,WeatherDisplay:10.37,2013-10-09 19:30:00,
2013-10-09 14:40:00,70.9,53.5,28.74,SE,143,1.0,9.0,54,0.00,FEW,,0.01,0.0,WeatherDisplay:10.37,2013-10-09 19:40:00,
2013-10-09 14:50:00,71.0,53.0,28.73,South,174,1.0,10.0,53,0.00,FEW,,0.01,0.0,WeatherDisplay:10.37,2013-10-09 19:50:00,
2013-10-09 15:00:00,71.0,50.3,28.73,SSE,152,5.0,12.0,48,0.00,FEW,,0.01,0.0,WeatherDisplay:10.37,2013-10-09 20:00:00,
2013-10-09 15:10:00,71.2,52.6,28.73,SSE,150,1.0,10.0,52,0.00,FEW,,0.01,0.0,WeatherDisplay:10.37,2013-10-09 20:10:00,
2013-10-09 15:20:00,71.5,52.4,28.73,SSE,149,0.0,10.0,51,0.00,FEW,,0.01,0.0,WeatherDisplay:10.37,2013-10-09 20:20:00,
2013-10-09 15:30:00,71.8,53.3,28.73,SE,145,2.0,12.0,52,0.00,FEW,,0.01,0.0,WeatherDisplay:10.37,2013-10-09 20:30:00,
2013-10-09 15:40:00,71.9,54.4,28.73,SSE,148,0.0,10.0,54,0.00,FEW,,0.01,0.0,WeatherDisplay:10.37,2013-10-09 20:40:00,
2013-10-09 15:50:00,72.2,54.1,28.73,SSE,151,1.0,9.0,53,0.01,RA,,0.02,0.0,WeatherDisplay:10.37,2013-10-09 20:50:00,
2013-10-09 16:00:00,72.1,53.5,28.72,SE,142,1.0,7.0,52,0.01,FEW,,0.02,0.0,WeatherDisplay:10.37,2013-10-09 21:00:00,
2013-10-09 16:10:00,71.8,53.8,28.73,SSE,153,3.0,10.0,53,0.01,FEW,,0.02,0.0,WeatherDisplay:10.37,2013-10-09 21:10:00,
2013-10-09 16:20:00,71.7,54.2,28.72,SSE,160,0.0,6.0,54,0.01,FEW,,0.02,0.0,WeatherDisplay:10.37,2013-10-09 21:20:00,
2013-10-09 16:30:00,71.8,53.7,28.72,SE,138,0.0,7.0,53,0.01,FEW,,0.02,0.0,WeatherDisplay:10.37,2013-10-09 21:30:00,
2013-10-09 16:40:00,71.7,53.1,28.73,SE,128,2.0,10.0,52,0.01,FEW,,0.02,0.0,WeatherDisplay:10.37,2013-10-09 21:40:00,
2013-10-09 16:50:00,71.5,51.3,28.73,SE,140,1.0,9.0,49,0.00,FEW,,0.02,0.0,WeatherDisplay:10.37,2013-10-09 21:50:00,
2013-10-09 17:00:00,71.5,51.9,28.73,SSE,162,2.0,8.0,50,0.00,FEW,,0.02,0.0,WeatherDisplay:10.37,2013-10-09 22:00:00,
2013-10-09 17:10:00,71.4,52.3,28.73,SE,146,1.0,7.0,51,0.00,FEW,,0.02,0.0,WeatherDisplay:10.37,2013-10-09 22:10:00,
2013-10-09 17:30:00,71.5,52.9,28.73,South,182,0.0,4.0,52,0.00,FEW,,0.02,0.0,WeatherDisplay:10.37,2013-10-09 22:30:00,
2013-10-09 17:50:00,70.9,53.4,28.72,SSE,156,1.0,8.0,54,0.00,FEW,,0.02,0.0,WeatherDisplay:10.37,2013-10-09 22:50:00,
2013-10-09 18:00:00,70.3,52.4,28.73,SSE,148,1.0,7.0,53,0.00,FEW,,0.02,0.0,WeatherDisplay:10.37,2013-10-09 23:00:00,
2013-10-09 18:10:00,69.6,52.7,28.73,SSE,154,0.0,9.0,55,0.00,FEW,,0.02,0.0,WeatherDisplay:10.37,2013-10-09 23:10:00,
2013-10-09 18:20:00,68.9,52.6,28.73,SSE,157,0.0,4.0,56,0.00,FEW,,0.02,0.0,WeatherDisplay:10.37,2013-10-09 23:20:00,
2013-10-09 18:30:00,68.3,52.5,28.73,SSE,157,0.0,1.0,57,0.00,FEW,,0.02,0.0,WeatherDisplay:10.37,2013-10-09 23:30:00,
2013-10-09 18:40:00,67.5,52.6,28.73,SSE,157,0.0,0.0,59,0.00,FEW,,0.02,0.0,WeatherDisplay:10.37,2013-10-09 23:40:00,
2013-10-09 18:50:00,65.8,52.4,28.73,SSE,157,0.0,0.0,62,0.00,FEW,,0.02,0.0,WeatherDisplay:10.37,2013-10-09 23:50:00,
2013-10-09 19:00:00,64.3,53.5,28.73,SSE,157,0.0,0.0,68,0.00,FEW,,0.02,0.0,WeatherDisplay:10.37,2013-10-10 00:00:00,
2013-10-09 19:10:00,62.0,52.5,28.73,SSE,157,0.0,0.0,71,0.00,FEW,,0.02,0.0,WeatherDisplay:10.37,2013-10-10 00:10:00,
2013-10-09 19:20:00,60.8,52.5,28.73,SSE,157,0.0,0.0,74,0.00,FEW,,0.02,0.0,WeatherDisplay:10.37,2013-10-10 00:20:00,
2013-10-09 19:30:00,59.8,51.9,28.73,SSE,157,0.0,0.0,75,0.00,FEW,,0.02,0.0,WeatherDisplay:10.37,2013-10-10 00:30:00,
2013-10-09 19:40:00,59.1,51.5,28.73,SSE,157,0.0,0.0,76,0.00,FEW,,0.02,0.0,WeatherDisplay:10.37,2013-10-10 00:40:00,
2013-10-09 19:50:00,58.7,51.2,28.74,SSE,157,0.0,0.0,76,0.00,FEW,,0.02,0.0,WeatherDisplay:10.37,2013-10-10 00:50:00,
2013-10-09 20:00:00,58.2,51.4,28.73,SSE,157,0.0,0.0,78,0.00,FEW,,0.02,0.0,WeatherDisplay:10.37,2013-10-10 01:00:00,
2013-10-09 20:10:00,57.7,51.5,28.73,SSE,157,0.0,0.0,80,0.00,FEW,,0.02,0.0,WeatherDisplay:10.37,2013-10-10 01:10:00,
2013-10-09 20:20:00,57.3,51.2,28.73,SSE,157,0.0,0.0,80,0.00,FEW,,0.02,0.0,WeatherDisplay:10.37,2013-10-10 01:20:00,
2013-10-09 20:30:00,57.3,51.2,28.73,SSE,157,0.0,0.0,80,0.00,FEW,,0.02,0.0,WeatherDisplay:10.37,2013-10-10 01:30:00,
2013-10-09 20:40:00,58.0,51.8,28.73,SSE,157,0.0,0.0,80,0.00,FEW,,0.02,0.0,WeatherDisplay:10.37,2013-10-10 01:40:00,
2013-10-09 20:50:00,58.7,52.2,28.73,SSE,157,0.0,1.0,79,0.00,FEW,,0.02,0.0,WeatherDisplay:10.37,2013-10-10 01:50:00,
2013-10-09 21:00:00,59.3,52.8,28.73,SSE,157,0.0,0.0,79,0.00,FEW,,0.02,0.0,WeatherDisplay:10.37,2013-10-10 02:00:00,
2013-10-09 21:10:00,59.3,52.8,28.73,SSE,157,0.0,0.0,79,0.00,FEW,,0.02,0.0,WeatherDisplay:10.37,2013-10-10 02:10:00,
2013-10-09 21:20:00,59.4,52.9,28.73,SSE,157,0.0,2.0,79,0.00,FEW,,0.02,0.0,WeatherDisplay:10.37,2013-10-10 02:20:00,
2013-10-09 21:30:00,59.5,53.0,28.73,SSE,157,0.0,1.0,79,0.00,FEW,,0.02,0.0,WeatherDisplay:10.37,2013-10-10 02:30:00,
2013-10-09 21:40:00,59.5,53.0,28.73,SSE,157,0.0,0.0,79,0.00,FEW,,0.02,0.0,WeatherDisplay:10.37,2013-10-10 02:40:00,
2013-10-09 21:50:00,59.4,52.9,28.73,SSE,157,0.0,1.0,79,0.00,FEW,,0.02,0.0,WeatherDisplay:10.37,2013-10-10 02:50:00,
2013-10-09 22:00:00,59.2,52.7,28.74,SSE,157,0.0,0.0,79,0.00,FEW,,0.02,0.0,WeatherDisplay:10.37,2013-10-10 03:00:00,
2013-10-09 22:10:00,58.9,52.8,28.74,SSE,157,0.0,0.0,80,0.00,FEW,,0.02,0.0,WeatherDisplay:10.37,2013-10-10 03:10:00,
2013-10-09 22:20:00,58.4,52.3,28.74,SSE,157,0.0,0.0,80,0.00,FEW,,0.02,0.0,WeatherDisplay:10.37,2013-10-10 03:20:00,
2013-10-09 22:30:00,57.4,52.0,28.74,SSE,157,0.0,0.0,82,0.00,FEW,,0.02,0.0,WeatherDisplay:10.37,2013-10-10 03:30:00,
2013-10-09 22:40:00,56.6,51.5,28.74,SSE,157,0.0,0.0,83,0.00,FEW,,0.02,0.0,WeatherDisplay:10.37,2013-10-10 03:40:00,
2013-10-09 22:50:00,55.6,51.2,28.74,SSE,157,0.0,0.0,85,0.00,FEW,,0.02,0.0,WeatherDisplay:10.37,2013-10-10 03:50:00,
2013-10-09 23:00:00,55.0,51.2,28.74,SSE,157,0.0,0.0,87,0.00,FEW,,0.02,0.0,WeatherDisplay:10.37,2013-10-10 04:00:00,
2013-10-09 23:10:00,54.9,51.4,28.74,SSE,157,0.0,0.0,88,0.00,FEW,,0.02,0.0,WeatherDisplay:10.37,2013-10-10 04:10:00,
2013-10-09 23:20:00,54.8,51.3,28.74,SSE,157,0.0,0.0,88,0.00,FEW,,0.02,0.0,WeatherDisplay:10.37,2013-10-10 04:20:00,
2013-10-09 23:30:00,54.9,51.7,28.74,SSE,157,0.0,0.0,89,0.00,FEW,,0.02,0.0,WeatherDisplay:10.37,2013-10-10 04:30:00,
2013-10-09 23:40:00,54.8,51.3,28.74,SSE,157,0.0,0.0,88,0.00,FEW,,0.02,0.0,WeatherDisplay:10.37,2013-10-10 04:40:00,
2013-10-09 23:50:00,54.8,51.6,28.74,SSE,157,0.0,0.0,89,0.00,FEW,,0.02,0.0,WeatherDisplay:10.37,2013-10-10 04:50:00,